Weather in Lysnovo

Russia / Ivanovo Oblast     56°53′19″N   40°55′10″E
temp.,
°C
wind,
m/s
gust,
m/s
humid.,
%
clouds,
%
prec.,
mm/h
press.,
hPa
HPBL,
m
4 march, thu
thu400:00−2wsw51192100 0.1 1002687
03:00−2wsw51296100 0.5 1000681
06:000wsw71497100 1.5 995877
09:00+1w8159497 2.3 9931209
12:00−1wnw7117992 0.6 9951229
15:00−2nw698296 0.6 9971010
18:00−5wnw488758 0.0 999180
21:00−9nw339329 0.0 100060
5 march, fri
fri500:00−11nw23930 0.0 100124
03:00−12wnw23930 0.0 100326
06:00−13wnw23950 0.0 100436
09:00−9w36930 0.0 1005213
12:00−5wnw358982 0.0 1005543
15:00−4wnw468491 0.4 1007897
18:00−8nw388867 0.3 1009184
21:00−13nw498933 0.3 1012207
6 march, sat
sat600:00−16nw23910 0.0 101445
03:00−17wnw23930 0.0 101627
06:00−17wnw23940 0.0 101628
09:00−13wnw259348 0.0 1016247
12:00−10nw3485100 0.1 1016645
15:00−9nw3581100 0.1 1015860
18:00−13w239091 0.0 101421
21:00−15wsw239345 0.0 101431
7 march, sun
sun700:00−15ssw369360 0.0 1012129
03:00−14ssw5119230 0.0 1009256
06:00−11ssw6149297 0.1 1004582
09:00−8ssw7139398 1.0 1000762
12:00−5ssw81392100 1.2 9951065
15:00−4ssw71293100 2.9 992962
18:00−6wnw71392100 2.3 9921036
21:00−9w51279100 2.4 994401
8 march, mon
mon800:00−13sw498723 0.0 995171
03:00−11ssw389048 0.2 994185
06:00−8ssw4995100 0.2 993393
09:00−8ssw4793100 0.4 993456
12:00−5wnw1292100 0.4 995382
15:00−6nw71092100 1.3 998723
18:00−11nw51290100 0.1 1001451
21:00−10wnw4119397 0.2 1005469